Gulkana, AK

2:21 PM AKST on February 23, 2018 (GMT -0900)
Gulkana

Weather History for PAGK - April, 2013

Change the Weather History Date:

Thursday, April 25, 2013

  Actual Average Record
Temperature  
Mean Temperature 30 °F -  
Max Temperature 35 °F 48 °F 67 °F (1983)
Min Temperature 21 °F 26 °F 8 °F (2002)
Degree Days  
Heating Degree Days 36    
Moisture  
Dew Point 10 °F    
Average Humidity 42    
Maximum Humidity 61    
Minimum Humidity 19    
Precipitation  
Precipitation 0.00 in - - ()
Snow  
Snow 0.00 in - - ()
Snow Depth 3.00 in    
Sea Level Pressure  
Sea Level Pressure 29.79 in    
Wind  
Wind Speed 18 mph (North)    
Max Wind Speed 29 mph    
Max Gust Speed 40 mph    
Visibility 10 miles    
Events      
Averages and records for this station are not official NWS values.
T = Trace of Precipitation, MM = Missing Value Source: NWS Daily Summary

Daily Weather History Graph

Daily Weather History Graph

Search for Another Location

Airport or City:

Trip Planner

Search our weather history database for the weather conditions in past years. The results will help you decide how hot, cold, wet, or windy it might be!

Date:

Astronomy

Apr. 25, 2013 Rise Set
Actual Time 5:44 AM AKDT 9:36 PM AKDT
Civil Twilight 4:48 AM AKDT 10:33 PM AKDT
Nautical Twilight 3:20 AM AKDT 12:05 AM AKDT
Astronomical Twilight Sun does not rise Sun does not rise
Moon 10:14 PM AKDT (4/25) 5:34 AM AKDT (4/25)
Length of Visible Light 17h 44m
Length of Day
15h 52m
Full, 100% of the Moon is Illuminated
Apr 25
Full
May 2
Last Quarter
May 9
New
May 17
First Quarter
May 24
Full

Hourly Weather History & Observations

Time (AKDT) Temp. Windchill Dew Point Humidity Pressure Visibility Wind Dir Wind Speed Gust Speed Precip Events Conditions
12:53 AM 30.0 °F 20.5 °F 18.0 °F 61% 29.80 in 10.0 mi NNW 11.5 mph - N/A   Overcast
1:53 AM 28.9 °F 18.6 °F 16.0 °F 58% 29.80 in 10.0 mi NNW 12.7 mph - N/A   Mostly Cloudy
2:53 AM 28.0 °F 16.5 °F 16.0 °F 61% 29.80 in 10.0 mi NNW 15.0 mph - N/A   Clear
3:53 AM 28.0 °F 16.1 °F 15.1 °F 58% 29.79 in 10.0 mi NNW 16.1 mph 24.2 mph N/A   Clear
4:53 AM 27.0 °F 15.2 °F 14.0 °F 58% 29.79 in 10.0 mi NNW 15.0 mph 23.0 mph N/A   Clear
5:53 AM 27.0 °F 13.9 °F 14.0 °F 58% 29.79 in 10.0 mi North 18.4 mph - N/A   Mostly Cloudy
6:53 AM 28.0 °F 16.5 °F 12.9 °F 53% 29.80 in 10.0 mi North 15.0 mph - N/A   Mostly Cloudy
7:53 AM 28.9 °F 16.9 °F 12.0 °F 49% 29.78 in 10.0 mi North 17.3 mph 24.2 mph N/A   Scattered Clouds
8:53 AM 30.9 °F 19.4 °F 10.9 °F 43% 29.77 in 10.0 mi North 17.3 mph 29.9 mph N/A   Mostly Cloudy
9:53 AM 32.0 °F 20.1 °F 10.9 °F 42% 29.77 in 10.0 mi North 19.6 mph 29.9 mph N/A   Scattered Clouds
10:53 AM 34.0 °F 22.1 °F 12.0 °F 40% 29.76 in 10.0 mi North 21.9 mph 32.2 mph N/A   Scattered Clouds
11:53 AM 35.1 °F 23.8 °F 10.9 °F 37% 29.75 in 10.0 mi NNE 20.7 mph 28.8 mph N/A   Mostly Cloudy
12:53 PM 33.1 °F 20.6 °F 10.9 °F 40% 29.75 in 10.0 mi NNE 23.0 mph 32.2 mph N/A   Mostly Cloudy
1:53 PM 34.0 °F 21.5 °F 10.0 °F 37% 29.76 in 10.0 mi North 24.2 mph 36.8 mph N/A   Mostly Cloudy
2:53 PM 33.1 °F 19.8 °F 3.9 °F 29% 29.76 in 10.0 mi North 26.5 mph 40.3 mph N/A   Scattered Clouds
3:53 PM 33.1 °F 19.3 °F 6.1 °F 32% 29.77 in 10.0 mi NNE 28.8 mph 38.0 mph N/A   Scattered Clouds
4:53 PM 30.9 °F 17.2 °F 6.1 °F 35% 29.79 in 10.0 mi North 25.3 mph 33.4 mph N/A   Scattered Clouds
5:53 PM 30.0 °F 16.9 °F 6.1 °F 36% 29.80 in 10.0 mi North 21.9 mph 31.1 mph N/A   Scattered Clouds
6:53 PM 28.9 °F 14.3 °F 3.0 °F 33% 29.81 in 10.0 mi NNE 26.5 mph 36.8 mph N/A   Partly Cloudy
7:53 PM 28.0 °F 13.3 °F 5.0 °F 38% 29.81 in 10.0 mi NNE 25.3 mph 34.5 mph N/A   Partly Cloudy
8:53 PM 26.1 °F 13.6 °F 3.9 °F 39% 29.83 in 10.0 mi North 16.1 mph 29.9 mph N/A   Partly Cloudy
9:25 PM 25.0 °F 10.2 °F 3.9 °F 41% 29.74 in 10.0 mi North 21.9 mph 31.1 mph N/A   Partly Cloudy
9:53 PM 24.1 °F 9.0 °F 6.1 °F 46% 29.83 in 10.0 mi North 21.9 mph 27.6 mph N/A   Clear
11:53 PM 21.9 °F 6.5 °F 1.9 °F 42% 29.84 in 10.0 mi North 20.7 mph 31.1 mph N/A   Clear